This is the latest recevied weather packets stored in our database for station/object KB1JL-13. If no packets are shown the sender has not sent any weather packets the latest 10 day(s).
| Time | Temp. | Humidity | Pressure | Rain* | Wind** | Luminosity | Snow |
|---|---|---|---|---|---|---|---|
| 1778085577 | 15.56° C | 91% | 1021.2 hPa | 0 mm | - | 68 W/m² | - |
| 1778085272 | 15.56° C | 89% | 1020.9 hPa | 0 mm | - | 71 W/m² | - |
| 1778084967 | 15.56° C | 88% | 1021.2 hPa | 0 mm | - | 78 W/m² | - |
| 1778084665 | 16.11° C | 87% | 1021.2 hPa | 0 mm | - | 95 W/m² | - |
| 1778084362 | 16.11° C | 87% | 1021.6 hPa | 0 mm | - | 97 W/m² | - |
| 1778084060 | 16.11° C | 86% | 1021.2 hPa | 0 mm | - | 117 W/m² | - |
| 1778083752 | 16.67° C | 85% | 1021.2 hPa | 0 mm | - | 214 W/m² | - |
| 1778083449 | 16.67° C | 85% | 1021.6 hPa | 0 mm | - | 196 W/m² | - |
| 1778083147 | 16.67° C | 85% | 1021.6 hPa | 0 mm | - | 163 W/m² | - |
| 1778082843 | 16.67° C | 85% | 1021.6 hPa | 0 mm | - | 172 W/m² | - |
| 1778081726 | 16.67° C | 86% | 1021.9 hPa | 0 mm | - | 210 W/m² | - |
| 1778081423 | 16.67° C | 85% | 1021.6 hPa | 0 mm | - | 173 W/m² | - |
| 1778081120 | 16.67° C | 85% | 1021.6 hPa | 0 mm | - | 243 W/m² | - |
| 1778080818 | 16.67° C | 86% | 1021.6 hPa | 0 mm | - | 210 W/m² | - |
| 1778080515 | 16.67° C | 86% | 1021.6 hPa | 0 mm | - | 264 W/m² | - |
| 1778080212 | 16.67° C | 86% | 1021.6 hPa | 0 mm | - | 220 W/m² | - |
| 1778079909 | 16.11° C | 86% | 1021.6 hPa | 0 mm | - | 167 W/m² | - |
| 1778079606 | 16.67° C | 85% | 1021.6 hPa | 0 mm | - | 157 W/m² | - |
| 1778079302 | 16.67° C | 85% | 1021.2 hPa | 0 mm | - | 189 W/m² | - |
| 1778079000 | 16.67° C | 85% | 1021.6 hPa | 0 mm | - | 213 W/m² | - |
| 1778078696 | 16.67° C | 85% | 1021.6 hPa | 0 mm | - | 268 W/m² | - |
| 1778078394 | 16.67° C | 84% | 1021.6 hPa | 0 mm | - | 268 W/m² | - |
| 1778078091 | 17.22° C | 83% | 1021.6 hPa | 0 mm | - | 258 W/m² | - |
| 1778077790 | 17.22° C | 83% | 1021.6 hPa | 0 mm | - | 325 W/m² | - |
| 1778077487 | 17.78° C | 82% | 1021.6 hPa | 0 mm | - | 344 W/m² | - |
* Rain latest hour (hover to see other rain measurements)
** Current wind speed in m/s (hover to see current wind gust speed)